Total_Precipitation_Accumulation
0.00 0.00 0.01 0.01 0.01 0.02 0.04 0.09 0.21 0.25 0.18 0.27 0.34 0.53 0.62 0.69 0.82 0.82 0.67 0.65 0.82 0.91 1.05 1.27 1.71 2.36 3.10 3.80 3.86 3.29 2.76 2.43 2.11 1.75 1.23 0.90 0.77 0.72 0.68 0.57 0.51 0.46 0.42 0.43
0.00 0.02 0.02 0.01 0.02 0.03 0.06 0.08 0.19 0.25 0.17 0.20 0.34 0.62 0.86 0.80 0.74 0.70 0.70 0.61 0.72 0.98 1.28 1.77 2.55 3.04 3.04 3.00 2.55 2.01 1.72 1.54 1.23 0.91 0.63 0.50 0.43 0.39 0.36 0.34 0.36 0.34 0.29 0.30
0.01 0.03 0.02 0.02 0.03 0.09 0.10 0.10 0.18 0.24 0.15 0.15 0.34 0.75 0.95 0.90 0.72 0.59 0.58 0.50 0.71 1.07 1.56 2.20 2.59 2.48 2.01 1.50 1.26 1.08 0.95 0.68 0.51 0.43 0.37 0.31 0.26 0.25 0.23 0.22 0.25 0.24 0.21 0.22
0.01 0.02 0.02 0.02 0.04 0.08 0.09 0.06 0.06 0.09 0.15 0.32 0.48 0.94 1.02 0.82 0.76 0.60 0.56 0.53 0.62 0.85 1.08 1.40 1.52 1.25 1.12 1.02 0.91 0.86 0.75 0.46 0.36 0.29 0.24 0.21 0.19 0.20 0.20 0.19 0.19 0.19 0.17 0.18
0.02 0.03 0.02 0.02 0.03 0.04 0.04 0.03 0.04 0.10 0.21 0.36 0.51 0.74 0.83 0.63 0.74 0.56 0.42 0.40 0.42 0.56 0.63 0.63 0.63 0.57 0.56 0.57 0.60 0.63 0.61 0.53 0.41 0.33 0.26 0.23 0.20 0.18 0.19 0.19 0.19 0.20 0.20 0.18
0.03 0.04 0.03 0.02 0.02 0.03 0.03 0.05 0.12 0.21 0.30 0.63 0.64 0.70 0.84 0.74 0.78 0.58 0.39 0.30 0.34 0.46 0.50 0.46 0.39 0.32 0.33 0.36 0.34 0.39 0.50 0.59 0.54 0.46 0.37 0.31 0.24 0.22 0.20 0.19 0.19 0.19 0.18 0.18
0.09 0.07 0.05 0.03 0.03 0.05 0.05 0.07 0.23 0.54 0.80 0.87 0.53 0.59 0.81 0.63 0.57 0.41 0.22 0.15 0.23 0.38 0.49 0.47 0.38 0.28 0.23 0.22 0.19 0.16 0.18 0.29 0.32 0.31 0.32 0.32 0.30 0.26 0.21 0.18 0.16 0.17 0.16 0.16
0.14 0.12 0.06 0.03 0.04 0.06 0.04 0.03 0.09 0.18 0.24 0.37 0.45 0.69 0.80 0.61 0.39 0.17 0.07 0.06 0.15 0.23 0.26 0.27 0.24 0.16 0.11 0.09 0.08 0.06 0.06 0.08 0.09 0.10 0.14 0.18 0.22 0.17 0.15 0.21 0.17 0.18 0.21 0.22
0.05 0.05 0.04 0.04 0.05 0.05 0.03 0.02 0.03 0.05 0.08 0.23 0.48 0.69 0.59 0.47 0.32 0.14 0.07 0.05 0.06 0.08 0.09 0.11 0.12 0.09 0.07 0.06 0.05 0.04 0.03 0.03 0.03 0.03 0.06 0.10 0.15 0.16 0.14 0.17 0.17 0.16 0.22 0.23
0.02 0.02 0.04 0.04 0.05 0.05 0.03 0.02 0.02 0.04 0.08 0.15 0.30 0.58 0.65 0.48 0.33 0.14 0.08 0.07 0.06 0.08 0.07 0.07 0.07 0.06 0.05 0.05 0.05 0.05 0.04 0.03 0.02 0.02 0.03 0.05 0.12 0.15 0.16 0.15 0.17 0.19 0.19 0.19
0.02 0.02 0.04 0.05 0.05 0.07 0.05 0.03 0.03 0.03 0.05 0.09 0.18 0.30 0.26 0.21 0.13 0.09 0.05 0.03 0.04 0.04 0.05 0.04 0.04 0.04 0.04 0.03 0.03 0.03 0.03 0.03 0.03 0.02 0.02 0.02 0.06 0.10 0.14 0.18 0.19 0.20 0.19 0.18
0.01 0.01 0.03 0.06 0.06 0.06 0.06 0.06 0.05 0.05 0.05 0.06 0.08 0.17 0.11 0.11 0.10 0.06 0.03 0.01 0.01 0.01 0.01 0.01 0.02 0.02 0.02 0.03 0.03 0.04 0.04 0.04 0.03 0.03 0.02 0.02 0.02 0.03 0.07 0.11 0.15 0.17 0.17 0.15
0.01 0.01 0.02 0.09 0.14 0.09 0.05 0.04 0.04 0.05 0.05 0.05 0.13 0.22 0.13 0.07 0.05 0.03 0.01 0.00 0.00 0.00 0.01 0.01 0.01 0.02 0.03 0.03 0.03 0.02 0.02 0.02 0.02 0.01 0.01 0.01 0.01 0.01 0.03 0.05 0.08 0.11 0.13 0.15
0.02 0.01 0.01 0.07 0.12 0.09 0.06 0.05 0.07 0.06 0.04 0.03 0.08 0.19 0.10 0.04 0.03 0.02 0.01 0.01 0.01 0.01 0.01 0.01 0.01 0.01 0.01 0.01 0.01 0.01 0.01 0.01 0.01 0.01 0.01 0.02 0.02 0.02 0.02 0.02 0.04 0.06 0.09 0.13
0.02 0.01 0.01 0.01 0.02 0.04 0.06 0.08 0.07 0.04 0.02 0.04 0.05 0.09 0.04 0.02 0.02 0.01 0.01 0.01 0.01 0.01 0.01 0.02 0.02 0.02 0.02 0.02 0.02 0.03 0.03 0.04 0.04 0.05 0.06 0.06 0.06 0.06 0.06 0.05 0.05 0.06 0.09 0.11
0.02 0.01 0.01 0.01 0.02 0.04 0.06 0.09 0.06 0.03 0.03 0.03 0.03 0.03 0.02 0.02 0.02 0.02 0.03 0.04 0.05 0.06 0.06 0.05 0.04 0.04 0.03 0.03 0.03 0.03 0.03 0.03 0.04 0.06 0.06 0.06 0.06 0.06 0.07 0.06 0.06 0.07 0.10 0.15
0.01 0.01 0.01 0.01 0.02 0.03 0.11 0.07 0.04 0.04 0.04 0.04 0.04 0.04 0.03 0.04 0.05 0.05 0.07 0.07 0.06 0.05 0.03 0.03 0.03 0.03 0.03 0.02 0.02 0.01 0.02 0.02 0.03 0.04 0.04 0.05 0.06 0.06 0.08 0.08 0.08 0.10 0.14 0.19
0.02 0.01 0.01 0.01 0.01 0.06 0.09 0.05 0.04 0.04 0.04 0.06 0.07 0.06 0.06 0.06 0.06 0.05 0.05 0.04 0.03 0.03 0.03 0.03 0.03 0.03 0.02 0.02 0.02 0.02 0.02 0.02 0.03 0.04 0.04 0.06 0.07 0.09 0.11 0.14 0.16 0.19 0.23 0.25
0.05 0.04 0.03 0.03 0.02 0.04 0.05 0.05 0.06 0.09 0.08 0.06 0.09 0.10 0.08 0.07 0.05 0.04 0.05 0.05 0.05 0.05 0.04 0.03 0.03 0.03 0.03 0.02 0.02 0.02 0.03 0.04 0.04 0.05 0.07 0.09 0.12 0.14 0.16 0.18 0.23 0.31 0.33 0.32
0.07 0.07 0.06 0.04 0.04 0.06 0.07 0.09 0.08 0.09 0.12 0.10 0.13 0.13 0.10 0.09 0.12 0.13 0.11 0.09 0.07 0.05 0.04 0.03 0.03 0.03 0.03 0.04 0.04 0.04 0.05 0.07 0.09 0.11 0.13 0.15 0.18 0.22 0.24 0.27 0.32 0.36 0.41 0.41
0.11 0.10 0.09 0.07 0.06 0.06 0.09 0.11 0.12 0.20 0.23 0.24 0.26 0.21 0.14 0.11 0.12 0.12 0.09 0.08 0.06 0.05 0.04 0.03 0.02 0.02 0.03 0.04 0.05 0.08 0.11 0.15 0.17 0.19 0.19 0.20 0.23 0.28 0.30 0.36 0.41 0.43 0.45 0.47
0.12 0.16 0.17 0.16 0.19 0.18 0.16 0.18 0.23 0.28 0.25 0.25 0.20 0.14 0.10 0.08 0.07 0.05 0.04 0.03 0.03 0.03 0.02 0.02 0.02 0.02 0.03 0.05 0.09 0.14 0.17 0.19 0.20 0.21 0.22 0.22 0.25 0.26 0.29 0.38 0.43 0.47 0.53 0.55
0.09 0.10 0.12 0.15 0.19 0.19 0.19 0.17 0.15 0.12 0.09 0.07 0.05 0.04 0.04 0.04 0.04 0.03 0.02 0.02 0.02 0.01 0.02 0.02 0.02 0.03 0.05 0.08 0.14 0.19 0.18 0.19 0.22 0.23 0.24 0.25 0.26 0.30 0.35 0.40 0.40 0.41 0.44 0.45
0.05 0.04 0.06 0.10 0.15 0.18 0.17 0.12 0.09 0.07 0.05 0.04 0.03 0.04 0.05 0.04 0.03 0.02 0.02 0.01 0.01 0.01 0.02 0.02 0.03 0.06 0.08 0.10 0.13 0.16 0.18 0.22 0.27 0.28 0.28 0.29 0.30 0.32 0.34 0.42 0.42 0.41 0.41 0.40
0.02 0.04 0.08 0.14 0.19 0.22 0.19 0.14 0.11 0.07 0.05 0.04 0.05 0.05 0.05 0.04 0.03 0.02 0.01 0.01 0.01 0.01 0.02 0.04 0.08 0.12 0.13 0.13 0.13 0.15 0.18 0.26 0.31 0.31 0.30 0.31 0.33 0.33 0.33 0.39 0.42 0.36 0.37 0.34
0.01 0.02 0.06 0.12 0.17 0.20 0.19 0.13 0.08 0.06 0.05 0.06 0.06 0.06 0.05 0.04 0.02 0.01 0.01 0.01 0.01 0.02 0.05 0.09 0.13 0.16 0.16 0.15 0.16 0.17 0.21 0.31 0.37 0.37 0.34 0.33 0.33 0.33 0.34 0.37 0.37 0.30 0.23 0.21